This demonstration page uses our WeatherBlox Daily Observations layout. Learn more.

Left ArrowRight Arrow

39.08367, -84.50855

Hourly Observations for September 20, 2015

Temp ( °F °C ) Dew Point ( °F °C ) Humidity (%) Winds ( mph kmh ) Pressure ( in mb ) Visibility ( mi km ) Precip ( " mm )
12:53 am 00:53 Clear 56 13.3 53 11.7 90 90 Calm 30.09 1019 10 16 0.00 0.00
1:53 am 01:53 Clear 54 12.2 53 11.7 97 97 NNE 3 6 30.09 1019 10 16 0.00 0.00
2:53 am 02:53 Clear 52 11.1 52 11.1 100 100 Calm 30.08 1019 10 16 0.00 0.00
3:53 am 03:53 Mostly Clear 54 12.2 52 11.1 93 93 undefined N/A 30.09 1019 10 16 0.00 0.00
4:53 am 04:53 Clear 52 11.1 51 10.6 97 97 undefined N/A 30.10 1019 10 16 0.00 0.00
5:53 am 05:53 Clear 52 11.1 52 11.1 100 100 undefined N/A 30.11 1020 10 16 0.00 0.00
6:53 am 06:53 Clear 53 11.7 52 11.1 96 96 Calm 30.13 1020 10 16 0.00 0.00
7:15 am 07:15 Clear with Mist and Fog 51 10.6 51 10.6 100 100 undefined N/A 30.15 1021 2 3 0.00 0.00
7:22 am 07:22 Clear 51 10.6 51 10.6 100 100 Calm 30.15 1021 10 16 0.00 0.00
7:53 am 07:53 Sunny 52 11.1 52 11.1 100 100 Calm 30.15 1021 10 16 0.00 0.00
8:53 am 08:53 Sunny 58 14.4 54 12.2 87 87 Calm 30.16 1022 10 16 0.00 0.00
9:53 am 09:53 Sunny 62 16.7 55 12.8 78 78 NNE 9 15 30.17 1022 10 16 0.00 0.00
10:53 am 10:53 Sunny 67 19.4 55 12.8 66 66 NE 13 20 30.17 1022 10 16 0.00 0.00
11:53 am 11:53 Partly Cloudy 68 20 52 11.1 57 57 NE 8 13 30.17 1022 10 16 0.00 0.00
12:53 pm 12:53 Partly Cloudy 71 21.7 51 10.6 49 49 NE 9 15 30.15 1021 10 16 0.00 0.00
1:53 pm 13:53 Mostly Sunny 72 22.2 49 9.4 44 44 NE 12 19 30.12 1020 10 16 0.00 0.00
3:53 pm 15:53 Mostly Sunny 71 21.7 48 8.9 44 44 NNE 8 13 30.08 1019 10 16 0.00 0.00
4:53 pm 16:53 undefined N/A N/A N/A undefined N/A N/A N/A 0.00 0.00
5:53 pm 17:53 Mostly Cloudy 72 22.2 50 10 46 46 VRB 6 9 30.07 1018 10 16 0.00 0.00
7:53 pm 19:53 Mostly Cloudy 62 16.7 56 13.3 80 80 Calm 30.07 1018 10 16 0.00 0.00
8:53 pm 20:53 Partly Cloudy 60 15.6 55 12.8 84 84 Calm 30.09 1019 10 16 0.00 0.00
9:53 pm 21:53 Mostly Clear 58 14.4 56 13.3 93 93 Calm 30.10 1019 10 16 0.00 0.00
10:53 pm 22:53 Partly Cloudy 57 13.9 56 13.3 96 96 Calm 30.09 1019 10 16 0.00 0.00
11:53 pm 23:53 Clear 55 12.8 55 12.8 100 100 Calm 30.10 1019 10 16 0.00 0.00

Powered by AerisWeather